STARLINK-11529, 62599

Orbit data source: Space-Track

STARLINK-11529, 62599 is a payload satellite owned by SpaceX/Seattle (US) in LEO that was launched on Mon, 13 Jan 2025 UTC via an FALCON 9 launch vehicle from the Air Force Eastern Test Range (AFETR). Payload-class satellites include a variety of spacecraft equipped with specific instruments for various scientific and technological missions. These include communications satellites like Starlink; space stations such as the ISS; scientific satellites like the Hubble; Earth observation satellites from companies like Planet Labs, Umbra, and HawkEye 360; GPS; miniature CubeSats for education and research; and military/defense satellites.

Loading next visibility...
Identifier
62599, 2025-008N
Orbit
LEO
Country
Flag of USUS
Related business
Manufacturer
SpaceX/Seattle
Mission
Operational Commercial Communications
Bus & Motor
STARLINK V2MD, Unknown motor
Mass
960 kg wet, ~910 kg dry
Launch date (UTC)
2025-01-13 (2 years ago)
Launch vehicle
FALCON 9
Launch site
Air Force Eastern Test Range (AFETR)
Object type
Payload
Rocket body
Debris
Shape & HBR
Box + 2 Pan, 18.1 m
Radar Cross Section
36.964 m², Large (>1 m²)

Expand to show TLE details & history
Last TLE update: 17 hours ago

TLE from 17 hours ago
0 STARLINK-11529
1 62599U 25008N   26197.69508735  .00147376  00000-0  11280-2 0  9996
2 62599  43.0010  68.5418 0002057 259.6470 100.4165 15.70918364 87589
Epoch: 2026-07-16T16:40Z
TLE epoch observation values (Epoch: 2026-07-16T16:40:55.547Z)
Latitude
-0.00006°
Longitude
-116.22256°
Altitude
356.293 km
Speed
7.697 km/s
True Right ascension
04h 34m 10s
True Declination
0° 00' 00"
Sunlit
Object was in daylight at epoch
Visualization orbit readout
Latitude
Unknown
Longitude
Unknown
Altitude
Unknown
Speed
Unknown
Apparent Right ascension
Unknown
Apparent Declination
Unknown
Sunlit
N/A
Visualization observer readout
Local Sidereal Time
21:56:12
Azimuth
Unknown
Elevation
Unknown
Doppler factor
Unknown
Orbital elements
Apogee altitude
359.638 km
Perigee altitude
356.867 km
Semi-major axis
6,736.39 km
Eccentricity
0.00021
Inclination
43.001°
RAAN
68.5418°
Arg. of periapsis
259.647°
True anomaly
100.43968°
Mean anomaly
100.4165°
Eccentric anomaly
100.42809°
Mean motion
3.92557 °/min
Orbital period
91.71 mins
BSTAR
0.001128
Loading maneuver chart data...
Computing Atmospheric mass density...
Loading historical data...
Loading historical data...
Loading historical data...
Loading historical data...
Loading historical data...
Loading historical data...
Loading historical data...

Documentation

Showing up to 5 results
|